| time (UTC) | temp F | wind direction | speed knots | gust knots | rain 1hr in | rain 24hr in | rain mn in | humidity % | barometer mb |
| 20260505165040 | 70 | 190 | 2.6 | 10.4 | 0.00 | 0.00 | 0.00 | 58 | 1017.2 |
| 20260505164551 | 70 | 46 | 0.9 | 5.2 | 0.00 | 0.00 | 0.00 | 62 | 1017.3 |
| 20260505164040 | 70 | 67 | 1.7 | 5.2 | 0.00 | 0.00 | 0.00 | 61 | 1017.5 |
| 20260505163543 | 69 | 200 | 1.7 | 5.2 | 0.00 | 0.00 | 0.00 | 60 | 1017.5 |
| 20260505163047 | 69 | 5 | 0.9 | 5.2 | 0.00 | 0.00 | 0.00 | 63 | 1017.3 |
| 20260505162541 | 68 | 211 | 1.7 | 5.2 | 0.00 | 0.00 | 0.00 | 63 | 1017.5 |
| 20260505162040 | 68 | 291 | 1.7 | 5.2 | 0.00 | 0.00 | 0.00 | 68 | 1017.5 |
| 20260505161603 | 67 | 0 | 0.9 | 4.3 | 0.00 | 0.00 | 0.00 | 70 | 1017.4 |
| 20260505161042 | 67 | 0 | 0.9 | 6.1 | 0.00 | 0.00 | 0.00 | 66 | 1017.5 |
| 20260505160541 | 67 | 284 | 1.7 | 6.1 | 0.00 | 0.00 | 0.00 | 68 | 1017.6 |
| 20260505153051 | 66 | 0 | 0.9 | 7.8 | 0.00 | 0.00 | 0.00 | 70 | 1017.6 |
| 20260505152541 | 65 | 222 | 0.9 | 7.8 | 0.00 | 0.00 | 0.00 | 70 | 1017.6 |
| 20260505152040 | 65 | 316 | 1.7 | 7.0 | 0.00 | 0.00 | 0.00 | 70 | 1017.6 |
| 20260505151617 | 65 | 268 | 1.7 | 7.0 | 0.00 | 0.00 | 0.00 | 67 | 1017.6 |
| 20260505151039 | 65 | 166 | 1.7 | 5.2 | 0.00 | 0.00 | 0.00 | 68 | 1017.3 |
| 20260505150539 | 65 | 155 | 0.9 | 5.2 | 0.00 | 0.00 | 0.00 | 68 | 1017.4 |
| 20260505140540 | 62 | 349 | 0.9 | 7.8 | 0.00 | 0.00 | 0.00 | 73 | 1017.0 |
| 20260505125040 | 56 | 126 | 0.9 | 5.2 | 0.00 | 0.00 | 0.00 | 83 | 1017.1 |
| 20260505124556 | 55 | 40 | 0.9 | 4.3 | 0.00 | 0.00 | 0.00 | 84 | 1017.0 |
| 20260505124043 | 54 | 0 | 0.9 | 4.3 | 0.00 | 0.00 | 0.00 | 86 | 1017.0 |
| 20260505123543 | 53 | 166 | 0.0 | 2.6 | 0.00 | 0.00 | 0.00 | 86 | 1017.1 |
| 20260505123056 | 52 | 0 | 0.0 | 1.7 | 0.00 | 0.00 | 0.00 | 89 | 1017.0 |
| 20260505122540 | 52 | 164 | 0.0 | 0.9 | 0.00 | 0.00 | 0.00 | 90 | 1016.8 |
| 20260505122040 | 51 | 0 | 0.0 | 0.0 | 0.00 | 0.00 | 0.00 | 91 | 1016.9 |
| 20260505121553 | 50 | 0 | 0.0 | 0.0 | 0.00 | 0.00 | 0.00 | 92 | 1016.7 |
| 20260505121040 | 50 | 0 | 0.0 | 0.0 | 0.00 | 0.00 | 0.00 | 92 | 1016.6 |
| 20260505120540 | 49 | 0 | 0.0 | 0.0 | 0.00 | 0.00 | 0.00 | 92 | 1016.6 |
| 20260505120111 | 49 | 0 | 0.0 | 0.9 | 0.00 | 0.00 | 0.00 | 92 | 1016.8 |
| 20260505115540 | 48 | 0 | 0.0 | 0.9 | 0.00 | 0.00 | 0.00 | 92 | 1016.7 |
| 20260505115039 | 48 | 0 | 0.0 | 0.9 | 0.00 | 0.00 | 0.00 | 92 | 1016.6 |
| 20260505114552 | 47 | 0 | 0.0 | 0.0 | 0.00 | 0.00 | 0.00 | 92 | 1016.6 |
| 20260505114041 | 47 | 0 | 0.0 | 1.7 | 0.00 | 0.00 | 0.00 | 91 | 1016.4 |
| 20260505113540 | 47 | 0 | 0.0 | 1.7 | 0.00 | 0.00 | 0.00 | 91 | 1016.4 |
| 20260505113049 | 47 | 168 | 0.0 | 1.7 | 0.00 | 0.00 | 0.00 | 91 | 1016.4 |
| 20260505112540 | 47 | 0 | 0.0 | 0.0 | 0.00 | 0.00 | 0.00 | 91 | 1016.2 |
| 20260505112040 | 47 | 0 | 0.0 | 0.0 | 0.00 | 0.00 | 0.00 | 91 | 1016.3 |
| 20260505111550 | 47 | 0 | 0.0 | 0.0 | 0.00 | 0.00 | 0.00 | 91 | 1016.1 |
| 20260505111041 | 47 | 0 | 0.0 | 0.0 | 0.00 | 0.00 | 0.00 | 90 | 1016.1 |
| 20260505110539 | 47 | 0 | 0.0 | 0.0 | 0.00 | 0.00 | 0.00 | 90 | 1016.0 |
| 20260505102041 | 48 | 0 | 0.0 | 0.0 | 0.00 | 0.00 | 0.00 | 89 | 1015.6 |
| 20260505101553 | 48 | 0 | 0.0 | 0.0 | 0.00 | 0.00 | 0.00 | 89 | 1015.5 |
| 20260505101040 | 48 | 0 | 0.0 | 0.0 | 0.00 | 0.00 | 0.00 | 88 | 1015.6 |
| 20260505100540 | 48 | 0 | 0.0 | 0.0 | 0.00 | 0.00 | 0.00 | 88 | 1015.6 |
| 20260505100051 | 48 | 0 | 0.0 | 0.0 | 0.00 | 0.00 | 0.00 | 88 | 1015.7 |
| 20260505095540 | 48 | 0 | 0.0 | 0.0 | 0.00 | 0.00 | 0.00 | 88 | 1015.7 |
| 20260505095039 | 48 | 0 | 0.0 | 0.0 | 0.00 | 0.00 | 0.00 | 88 | 1015.8 |
| 20260505094550 | 49 | 0 | 0.0 | 0.0 | 0.00 | 0.00 | 0.00 | 88 | 1015.9 |
| 20260505094044 | 49 | 0 | 0.0 | 0.0 | 0.00 | 0.00 | 0.00 | 87 | 1016.0 |
| 20260505093540 | 49 | 0 | 0.0 | 0.0 | 0.00 | 0.00 | 0.00 | 87 | 1016.0 |
| 20260505093048 | 49 | 0 | 0.0 | 0.0 | 0.00 | 0.00 | 0.00 | 87 | 1016.1 |
| 20260505092542 | 49 | 0 | 0.0 | 0.0 | 0.00 | 0.00 | 0.00 | 86 | 1015.9 |
| 20260505092039 | 49 | 0 | 0.0 | 0.0 | 0.00 | 0.00 | 0.00 | 87 | 1015.9 |
| 20260505091553 | 49 | 0 | 0.0 | 0.0 | 0.00 | 0.00 | 0.00 | 87 | 1015.9 |
| 20260505091039 | 50 | 0 | 0.0 | 0.0 | 0.00 | 0.00 | 0.00 | 86 | 1016.0 |
| 20260505090539 | 50 | 0 | 0.0 | 0.0 | 0.00 | 0.00 | 0.00 | 86 | 1015.9 |
| 20260505090051 | 50 | 0 | 0.0 | 0.0 | 0.00 | 0.00 | 0.00 | 85 | 1016.0 |
| 20260505085540 | 50 | 0 | 0.0 | 0.0 | 0.00 | 0.00 | 0.00 | 85 | 1016.0 |
| 20260505085040 | 50 | 0 | 0.0 | 0.0 | 0.00 | 0.00 | 0.00 | 85 | 1016.0 |
| 20260505084552 | 50 | 0 | 0.0 | 0.0 | 0.00 | 0.00 | 0.00 | 85 | 1016.0 |
| 20260505084040 | 50 | 0 | 0.0 | 0.0 | 0.00 | 0.00 | 0.00 | 84 | 1016.0 |
| 20260505083540 | 51 | 0 | 0.0 | 0.0 | 0.00 | 0.00 | 0.00 | 84 | 1016.0 |
| 20260505083052 | 51 | 0 | 0.0 | 0.0 | 0.00 | 0.00 | 0.00 | 84 | 1015.9 |
| 20260505082541 | 51 | 0 | 0.0 | 0.0 | 0.00 | 0.00 | 0.00 | 84 | 1015.9 |
| 20260505082041 | 51 | 0 | 0.0 | 1.7 | 0.00 | 0.00 | 0.00 | 84 | 1015.9 |
| 20260505081549 | 51 | 0 | 0.0 | 1.7 | 0.00 | 0.00 | 0.00 | 85 | 1015.9 |
| 20260505081042 | 51 | 0 | 0.0 | 1.7 | 0.00 | 0.00 | 0.00 | 84 | 1015.8 |
| 20260505080540 | 51 | 0 | 0.0 | 1.7 | 0.00 | 0.00 | 0.00 | 85 | 1015.6 |
| 20260505080051 | 51 | 0 | 0.0 | 0.9 | 0.00 | 0.00 | 0.00 | 85 | 1015.6 |
| 20260505075542 | 51 | 0 | 0.0 | 1.7 | 0.00 | 0.00 | 0.00 | 85 | 1015.5 |
| 20260505075041 | 51 | 5 | 0.0 | 1.7 | 0.00 | 0.00 | 0.00 | 86 | 1015.5 |
| 20260505074601 | 51 | 5 | 0.0 | 2.6 | 0.00 | 0.00 | 0.00 | 85 | 1015.5 |
| 20260505074041 | 52 | 98 | 0.0 | 2.6 | 0.00 | 0.00 | 0.00 | 85 | 1015.5 |
| 20260505073542 | 52 | 75 | 0.0 | 0.9 | 0.00 | 0.00 | 0.00 | 85 | 1015.5 |
| 20260505073103 | 52 | 0 | 0.0 | 1.7 | 0.00 | 0.00 | 0.00 | 85 | 1015.5 |
| 20260505072542 | 52 | 0 | 0.0 | 1.7 | 0.00 | 0.00 | 0.00 | 85 | 1015.5 |
| 20260505072042 | 52 | 0 | 0.0 | 1.7 | 0.00 | 0.00 | 0.00 | 84 | 1015.5 |
| 20260505071552 | 52 | 0 | 0.0 | 1.7 | 0.00 | 0.00 | 0.00 | 84 | 1015.7 |
| 20260505071040 | 52 | 0 | 0.0 | 0.9 | 0.00 | 0.00 | 0.00 | 84 | 1015.8 |
| 20260505070540 | 53 | 0 | 0.0 | 0.9 | 0.00 | 0.00 | 0.00 | 83 | 1015.8 |
| 20260505070049 | 53 | 51 | 0.0 | 0.9 | 0.00 | 0.00 | 0.00 | 84 | 1015.9 |
| 20260505065541 | 53 | 51 | 0.0 | 0.9 | 0.00 | 0.00 | 0.00 | 83 | 1015.9 |
| 20260505065042 | 53 | 0 | 0.0 | 0.9 | 0.00 | 0.00 | 0.00 | 83 | 1015.9 |
| 20260505064551 | 53 | 0 | 0.0 | 1.7 | 0.00 | 0.00 | 0.00 | 83 | 1015.9 |
| 20260505064040 | 53 | 0 | 0.0 | 1.7 | 0.00 | 0.00 | 0.00 | 82 | 1015.9 |
| 20260505063541 | 54 | 0 | 0.0 | 1.7 | 0.00 | 0.00 | 0.00 | 82 | 1015.9 |
| 20260505063049 | 54 | 81 | 0.0 | 3.5 | 0.00 | 0.00 | 0.00 | 82 | 1016.0 |
| 20260505062544 | 54 | 0 | 0.0 | 3.5 | 0.00 | 0.00 | 0.00 | 81 | 1016.0 |
| 20260505062039 | 54 | 65 | 0.0 | 3.5 | 0.00 | 0.00 | 0.00 | 81 | 1016.2 |
| 20260505061558 | 54 | 101 | 0.0 | 3.5 | 0.00 | 0.00 | 0.00 | 80 | 1016.1 |
| 20260505061040 | 55 | 0 | 0.9 | 3.5 | 0.00 | 0.00 | 0.00 | 80 | 1016.1 |
| 20260505060540 | 55 | 0 | 0.0 | 3.5 | 0.00 | 0.00 | 0.00 | 79 | 1016.3 |
| 20260505060059 | 55 | 0 | 0.0 | 3.5 | 0.00 | 0.00 | 0.00 | 80 | 1016.1 |
| 20260505055540 | 55 | 115 | 0.9 | 3.5 | 0.00 | 0.00 | 0.00 | 80 | 1016.2 |
| 20260505055041 | 55 | 82 | 0.9 | 2.6 | 0.00 | 0.00 | 0.00 | 79 | 1016.1 |
| 20260505054611 | 55 | 0 | 0.0 | 1.7 | 0.00 | 0.00 | 0.00 | 80 | 1016.2 |
| 20260505054039 | 55 | 0 | 0.0 | 1.7 | 0.00 | 0.00 | 0.00 | 79 | 1016.4 |
| 20260505053539 | 56 | 0 | 0.0 | 3.5 | 0.00 | 0.00 | 0.00 | 78 | 1016.2 |
| 20260505053107 | 56 | 0 | 0.0 | 3.5 | 0.00 | 0.00 | 0.00 | 79 | 1016.2 |
| 20260505052541 | 56 | 0 | 0.0 | 2.6 | 0.00 | 0.00 | 0.00 | 79 | 1016.2 |
| 20260505052041 | 56 | 0 | 0.0 | 2.6 | 0.00 | 0.00 | 0.00 | 79 | 1016.1 |
| 20260505051546 | 56 | 55 | 0.0 | 2.6 | 0.00 | 0.00 | 0.00 | 78 | 1016.0 |
| 20260505051040 | 56 | 65 | 0.9 | 2.6 | 0.00 | 0.00 | 0.00 | 78 | 1016.2 |
| 20260505050542 | 56 | 0 | 0.0 | 1.7 | 0.00 | 0.00 | 0.00 | 78 | 1016.1 |
| 20260505041555 | 58 | 0 | 0.0 | 3.5 | 0.00 | 0.00 | 0.00 | 75 | 1015.9 |
| 20260505041041 | 58 | 132 | 0.0 | 3.5 | 0.00 | 0.00 | 0.00 | 74 | 1016.0 |
| 20260505040544 | 58 | 117 | 0.9 | 1.7 | 0.00 | 0.00 | 0.00 | 74 | 1015.7 |
| 20260505040056 | 58 | 107 | 0.0 | 1.7 | 0.00 | 0.00 | 0.00 | 73 | 1015.7 |
| 20260505035541 | 59 | 0 | 0.0 | 1.7 | 0.00 | 0.00 | 0.00 | 73 | 1015.9 |
| 20260505035042 | 59 | 0 | 0.0 | 1.7 | 0.00 | 0.00 | 0.00 | 72 | 1015.9 |
| 20260505034549 | 59 | 135 | 0.0 | 1.7 | 0.00 | 0.00 | 0.00 | 72 | 1015.9 |
| 20260505034041 | 59 | 37 | 0.0 | 1.7 | 0.00 | 0.00 | 0.00 | 71 | 1015.8 |
| 20260505033541 | 59 | 107 | 0.0 | 1.7 | 0.00 | 0.00 | 0.00 | 72 | 1015.9 |
| 20260505033052 | 59 | 0 | 0.0 | 2.6 | 0.00 | 0.00 | 0.00 | 71 | 1015.9 |
| 20260505032541 | 59 | 0 | 0.0 | 2.6 | 0.00 | 0.00 | 0.00 | 71 | 1015.9 |
| 20260505032041 | 59 | 198 | 0.0 | 3.5 | 0.00 | 0.00 | 0.00 | 70 | 1016.0 |
| 20260505031606 | 60 | 167 | 0.9 | 3.5 | 0.00 | 0.00 | 0.00 | 70 | 1016.0 |
| 20260505031041 | 60 | 0 | 0.0 | 3.5 | 0.00 | 0.00 | 0.00 | 69 | 1016.0 |
| 20260505030541 | 60 | 0 | 0.0 | 2.6 | 0.00 | 0.00 | 0.00 | 69 | 1015.9 |
| 20260505030055 | 60 | 95 | 0.0 | 2.6 | 0.00 | 0.00 | 0.00 | 68 | 1015.8 |
| 20260505025542 | 60 | 129 | 0.0 | 5.2 | 0.00 | 0.00 | 0.00 | 68 | 1015.7 |
| 20260505025040 | 60 | 138 | 0.0 | 5.2 | 0.00 | 0.00 | 0.00 | 67 | 1015.7 |
| 20260505024557 | 60 | 0 | 0.0 | 2.6 | 0.00 | 0.00 | 0.00 | 67 | 1015.9 |
| 20260505024041 | 60 | 121 | 0.9 | 2.6 | 0.00 | 0.00 | 0.00 | 66 | 1015.8 |
| 20260505023545 | 61 | 112 | 0.9 | 3.5 | 0.00 | 0.00 | 0.00 | 66 | 1016.0 |
| 20260505023111 | 61 | 0 | 0.0 | 6.1 | 0.00 | 0.00 | 0.00 | 65 | 1015.9 |
| 20260505022541 | 61 | 13 | 0.9 | 6.1 | 0.00 | 0.00 | 0.00 | 66 | 1015.9 |
| 20260505022041 | 61 | 43 | 0.9 | 2.6 | 0.00 | 0.00 | 0.00 | 66 | 1015.8 |
| 20260505021549 | 61 | 168 | 0.0 | 2.6 | 0.00 | 0.00 | 0.00 | 65 | 1015.9 |
| 20260505021040 | 61 | 244 | 0.9 | 2.6 | 0.00 | 0.00 | 0.00 | 65 | 1015.8 |
| 20260505020541 | 61 | 0 | 0.0 | 2.6 | 0.00 | 0.00 | 0.00 | 65 | 1015.8 |
| 20260505020057 | 61 | 119 | 0.0 | 3.5 | 0.00 | 0.00 | 0.00 | 64 | 1015.8 |
| 20260505015539 | 62 | 214 | 0.0 | 3.5 | 0.00 | 0.00 | 0.00 | 64 | 1015.8 |
| 20260505015041 | 62 | 269 | 0.0 | 1.7 | 0.00 | 0.00 | 0.00 | 64 | 1015.7 |
| 20260505014608 | 62 | 0 | 0.0 | 2.6 | 0.00 | 0.00 | 0.00 | 64 | 1015.8 |
| 20260505014041 | 62 | 78 | 0.0 | 2.6 | 0.00 | 0.00 | 0.00 | 64 | 1015.7 |
| 20260505013541 | 62 | 84 | 0.0 | 3.5 | 0.00 | 0.00 | 0.00 | 63 | 1015.8 |
| 20260505013106 | 62 | 0 | 0.9 | 3.5 | 0.00 | 0.00 | 0.00 | 63 | 1015.8 |
| 20260505012540 | 63 | 161 | 0.0 | 2.6 | 0.00 | 0.00 | 0.00 | 63 | 1015.8 |
| 20260505012040 | 63 | 121 | 0.9 | 3.5 | 0.00 | 0.00 | 0.00 | 64 | 1015.6 |
| 20260505011552 | 63 | 0 | 0.9 | 4.3 | 0.00 | 0.00 | 0.00 | 64 | 1015.6 |
| 20260505011041 | 63 | 0 | 0.0 | 4.3 | 0.00 | 0.00 | 0.00 | 63 | 1015.5 |
| 20260505010541 | 64 | 187 | 0.9 | 4.3 | 0.00 | 0.00 | 0.00 | 63 | 1015.5 |
| 20260505010053 | 64 | 113 | 0.9 | 4.3 | 0.00 | 0.00 | 0.00 | 64 | 1015.6 |
| 20260505005539 | 64 | 64 | 0.0 | 4.3 | 0.00 | 0.00 | 0.00 | 64 | 1015.7 |
| 20260505005042 | 65 | 12 | 0.0 | 2.6 | 0.00 | 0.00 | 0.00 | 62 | 1015.6 |
| 20260505004556 | 65 | 0 | 0.0 | 2.6 | 0.00 | 0.00 | 0.00 | 63 | 1015.4 |
| 20260505004042 | 65 | 0 | 0.0 | 2.6 | 0.00 | 0.00 | 0.00 | 62 | 1015.4 |
| 20260505003542 | 66 | 267 | 0.9 | 2.6 | 0.00 | 0.00 | 0.00 | 62 | 1015.4 |
| 20260505003053 | 66 | 0 | 0.9 | 3.5 | 0.00 | 0.00 | 0.00 | 61 | 1015.3 |
| 20260505002540 | 67 | 0 | 0.0 | 6.1 | 0.00 | 0.00 | 0.00 | 62 | 1015.4 |
| 20260505002042 | 67 | 169 | 0.9 | 6.1 | 0.00 | 0.00 | 0.00 | 62 | 1015.3 |
| 20260505001554 | 67 | 123 | 0.9 | 6.1 | 0.00 | 0.00 | 0.00 | 61 | 1015.4 |
| 20260505001041 | 68 | 38 | 0.0 | 7.0 | 0.00 | 0.00 | 0.00 | 61 | 1015.4 |
| 20260505000538 | 68 | 0 | 0.0 | 7.0 | 0.00 | 0.00 | 0.00 | 61 | 1015.4 |
| 20260505000106 | 69 | 30 | 1.7 | 7.0 | 0.00 | 0.00 | 0.00 | 60 | 1015.3 |
| 20260504235542 | 69 | 102 | 0.0 | 2.6 | 0.00 | 0.00 | 0.00 | 61 | 1015.3 |
| 20260504235042 | 69 | 168 | 0.9 | 2.6 | 0.00 | 0.00 | 0.00 | 59 | 1015.4 |
| 20260504234551 | 70 | 146 | 0.0 | 3.5 | 0.00 | 0.00 | 0.00 | 59 | 1015.3 |
| 20260504234038 | 70 | 104 | 0.0 | 3.5 | 0.00 | 0.00 | 0.00 | 58 | 1015.4 |
| 20260504233541 | 70 | 118 | 0.9 | 4.3 | 0.00 | 0.00 | 0.00 | 58 | 1015.4 |
| 20260504233057 | 70 | 288 | 0.9 | 4.3 | 0.00 | 0.00 | 0.00 | 56 | 1015.4 |
| 20260504232542 | 71 | 186 | 0.0 | 6.1 | 0.00 | 0.00 | 0.00 | 57 | 1015.3 |
| 20260504232041 | 71 | 129 | 0.9 | 7.0 | 0.00 | 0.00 | 0.00 | 56 | 1015.3 |
| 20260504231553 | 71 | 120 | 1.7 | 7.0 | 0.00 | 0.00 | 0.00 | 54 | 1015.3 |
| 20260504231041 | 72 | 162 | 1.7 | 7.0 | 0.00 | 0.00 | 0.00 | 54 | 1015.3 |
| 20260504230541 | 72 | 134 | 0.9 | 3.5 | 0.00 | 0.00 | 0.00 | 56 | 1015.3 |
| 20260504230104 | 72 | 225 | 0.0 | 4.3 | 0.00 | 0.00 | 0.00 | 54 | 1015.2 |
| 20260504225539 | 72 | 43 | 1.7 | 4.3 | 0.00 | 0.00 | 0.00 | 54 | 1015.2 |
| 20260504225040 | 73 | 272 | 1.7 | 3.5 | 0.00 | 0.00 | 0.00 | 52 | 1015.1 |
| 20260504224549 | 73 | 182 | 0.9 | 7.0 | 0.00 | 0.00 | 0.00 | 52 | 1015.2 |
| 20260504224041 | 73 | 309 | 0.0 | 7.8 | 0.00 | 0.00 | 0.00 | 48 | 1015.1 |
| 20260504223541 | 73 | 22 | 1.7 | 8.7 | 0.00 | 0.00 | 0.00 | 47 | 1015.1 |
| 20260504223056 | 73 | 227 | 1.7 | 8.7 | 0.00 | 0.00 | 0.00 | 48 | 1015.2 |
| 20260504222542 | 73 | 140 | 0.9 | 8.7 | 0.00 | 0.00 | 0.00 | 46 | 1015.2 |
| 20260504222041 | 74 | 0 | 0.0 | 6.1 | 0.00 | 0.00 | 0.00 | 47 | 1015.1 |
| 20260504221558 | 74 | 236 | 0.9 | 6.1 | 0.00 | 0.00 | 0.00 | 46 | 1015.2 |
| 20260504221039 | 74 | 204 | 1.7 | 6.1 | 0.00 | 0.00 | 0.00 | 47 | 1015.1 |
| 20260504220541 | 74 | 340 | 0.9 | 5.2 | 0.00 | 0.00 | 0.00 | 47 | 1015.1 |
| 20260504220059 | 74 | 306 | 1.7 | 5.2 | 0.00 | 0.00 | 0.00 | 48 | 1015.0 |
| 20260504215545 | 74 | 181 | 0.9 | 5.2 | 0.00 | 0.00 | 0.00 | 51 | 1015.0 |
| 20260504215042 | 74 | 172 | 0.9 | 6.1 | 0.00 | 0.00 | 0.00 | 49 | 1015.0 |
| 20260504214550 | 74 | 119 | 0.0 | 7.0 | 0.00 | 0.00 | 0.00 | 48 | 1015.2 |
| 20260504214040 | 74 | 24 | 2.6 | 7.0 | 0.00 | 0.00 | 0.00 | 48 | 1015.1 |
| 20260504213540 | 74 | 210 | 0.9 | 3.5 | 0.00 | 0.00 | 0.00 | 47 | 1015.2 |
| 20260504213050 | 74 | 74 | 0.9 | 3.5 | 0.00 | 0.00 | 0.00 | 49 | 1015.1 |
| 20260504212543 | 75 | 227 | 0.9 | 3.5 | 0.00 | 0.00 | 0.00 | 49 | 1015.2 |
| 20260504212041 | 75 | 0 | 0.9 | 3.5 | 0.00 | 0.00 | 0.00 | 49 | 1015.3 |
| 20260504211550 | 75 | 325 | 0.9 | 7.0 | 0.00 | 0.00 | 0.00 | 48 | 1015.2 |
| 20260504211041 | 75 | 15 | 0.9 | 7.0 | 0.00 | 0.00 | 0.00 | 48 | 1015.3 |
| 20260504210543 | 76 | 296 | 0.9 | 7.0 | 0.00 | 0.00 | 0.00 | 47 | 1015.3 |
| 20260504210054 | 76 | 306 | 1.7 | 5.2 | 0.00 | 0.00 | 0.00 | 47 | 1015.4 |
| 20260504205542 | 76 | 0 | 1.7 | 6.1 | 0.00 | 0.00 | 0.00 | 46 | 1015.5 |
| 20260504205040 | 77 | 288 | 2.6 | 6.1 | 0.00 | 0.00 | 0.00 | 47 | 1015.5 |
| 20260504204546 | 77 | 209 | 1.7 | 5.2 | 0.00 | 0.00 | 0.00 | 47 | 1015.6 |
| 20260504204042 | 77 | 82 | 0.0 | 5.2 | 0.00 | 0.00 | 0.00 | 47 | 1015.7 |
| 20260504203540 | 77 | 231 | 1.7 | 6.1 | 0.00 | 0.00 | 0.00 | 48 | 1015.6 |
| 20260504203100 | 76 | 126 | 0.9 | 6.1 | 0.00 | 0.00 | 0.00 | 45 | 1015.8 |
| 20260504202540 | 77 | 84 | 0.9 | 4.3 | 0.00 | 0.00 | 0.00 | 47 | 1015.8 |
| 20260504202041 | 77 | 336 | 1.7 | 4.3 | 0.00 | 0.00 | 0.00 | 47 | 1015.8 |
| 20260504201550 | 77 | 286 | 1.7 | 4.3 | 0.00 | 0.00 | 0.00 | 46 | 1016.0 |
| 20260504201040 | 76 | 334 | 1.7 | 6.1 | 0.00 | 0.00 | 0.00 | 48 | 1016.0 |
| 20260504200540 | 76 | 0 | 1.7 | 6.1 | 0.00 | 0.00 | 0.00 | 47 | 1016.1 |
| 20260504200051 | 76 | 136 | 1.7 | 4.3 | 0.00 | 0.00 | 0.00 | 48 | 1016.2 |
| 20260504195540 | 77 | 211 | 1.7 | 6.1 | 0.00 | 0.00 | 0.00 | 46 | 1016.2 |
| 20260504195042 | 77 | 286 | 1.7 | 6.1 | 0.00 | 0.00 | 0.00 | 48 | 1016.3 |
| 20260504194554 | 77 | 315 | 0.9 | 6.1 | 0.00 | 0.00 | 0.00 | 50 | 1016.3 |
| 20260504194041 | 76 | 317 | 1.7 | 6.1 | 0.00 | 0.00 | 0.00 | 48 | 1016.3 |
| 20260504193540 | 76 | 302 | 0.9 | 6.1 | 0.00 | 0.00 | 0.00 | 48 | 1016.5 |
| 20260504193055 | 76 | 19 | 1.7 | 12.2 | 0.00 | 0.00 | 0.00 | 50 | 1016.5 |
| 20260504192540 | 76 | 292 | 1.7 | 12.2 | 0.00 | 0.00 | 0.00 | 47 | 1016.6 |
| 20260504192040 | 76 | 207 | 3.5 | 12.2 | 0.00 | 0.00 | 0.00 | 49 | 1016.5 |
| 20260504191600 | 77 | 223 | 1.7 | 7.0 | 0.00 | 0.00 | 0.00 | 49 | 1016.6 |
| 20260504191040 | 76 | 192 | 0.9 | 7.0 | 0.00 | 0.00 | 0.00 | 50 | 1016.7 |
| 20260504190540 | 76 | 65 | 1.7 | 7.0 | 0.00 | 0.00 | 0.00 | 48 | 1016.8 |
| 20260504190049 | 75 | 207 | 0.9 | 4.3 | 0.00 | 0.00 | 0.00 | 53 | 1016.8 |
| 20260504185540 | 75 | 301 | 0.9 | 3.5 | 0.00 | 0.00 | 0.00 | 55 | 1016.8 |
| 20260504185040 | 75 | 298 | 0.9 | 3.5 | 0.00 | 0.00 | 0.00 | 52 | 1017.0 |
| 20260504184551 | 75 | 194 | 0.9 | 6.1 | 0.00 | 0.00 | 0.00 | 51 | 1017.0 |
| 20260504184044 | 75 | 30 | 1.7 | 7.8 | 0.00 | 0.00 | 0.00 | 51 | 1017.1 |
| 20260504183541 | 75 | 296 | 1.7 | 7.8 | 0.00 | 0.00 | 0.00 | 53 | 1017.0 |
| 20260504183049 | 74 | 87 | 0.9 | 6.1 | 0.00 | 0.00 | 0.00 | 53 | 1017.1 |
| 20260504182540 | 74 | 295 | 0.9 | 6.1 | 0.00 | 0.00 | 0.00 | 53 | 1017.0 |
| 20260504182040 | 75 | 273 | 1.7 | 5.2 | 0.00 | 0.00 | 0.00 | 51 | 1017.1 |
| 20260504181559 | 75 | 296 | 1.7 | 6.1 | 0.00 | 0.00 | 0.00 | 56 | 1017.1 |
| 20260504181040 | 75 | 209 | 1.7 | 6.1 | 0.00 | 0.00 | 0.00 | 52 | 1017.3 |
| 20260504180540 | 75 | 347 | 0.9 | 6.1 | 0.00 | 0.00 | 0.00 | 54 | 1017.2 |
| 20260504180059 | 74 | 261 | 1.7 | 7.8 | 0.00 | 0.00 | 0.00 | 52 | 1017.1 |
| 20260504175541 | 74 | 70 | 1.7 | 7.8 | 0.00 | 0.00 | 0.00 | 51 | 1017.2 |
| 20260504175041 | 74 | 118 | 0.9 | 5.2 | 0.00 | 0.00 | 0.00 | 53 | 1017.3 |
| 20260504174551 | 74 | 321 | 1.7 | 6.1 | 0.00 | 0.00 | 0.00 | 53 | 1017.4 |
| 20260504174041 | 75 | 275 | 0.9 | 7.0 | 0.00 | 0.00 | 0.00 | 51 | 1017.4 |
| 20260504173540 | 75 | 74 | 1.7 | 7.0 | 0.00 | 0.00 | 0.00 | 52 | 1017.4 |
| 20260504173050 | 74 | 36 | 1.7 | 7.0 | 0.00 | 0.00 | 0.00 | 54 | 1017.4 |
| 20260504172540 | 74 | 243 | 1.7 | 6.1 | 0.00 | 0.00 | 0.00 | 55 | 1017.5 |
| 20260504172040 | 74 | 171 | 1.7 | 6.1 | 0.00 | 0.00 | 0.00 | 55 | 1017.5 |
| 20260504171554 | 74 | 191 | 0.9 | 6.1 | 0.00 | 0.00 | 0.00 | 56 | 1017.5 |
| 20260504171040 | 74 | 296 | 1.7 | 6.1 | 0.00 | 0.00 | 0.00 | 53 | 1017.5 |
| 20260504170541 | 74 | 80 | 2.6 | 6.1 | 0.00 | 0.00 | 0.00 | 53 | 1017.7 |